Location: El Limón
(10.3059°N, 67.6321°W)
Time: 12:06:19
(UTC+00:00)

Nadezhda 2 Rocket - Pass Details

Date: 18 December 2025
Orbit: 946 x 1011 km, 83.0° (Epoch: 12 January)

Event Time Altitude Azimuth Distance (km) Brightness Sun altitude
Rises 09:53:52 0° 151° (SSE) 3,721 8.4 -11.6°
Reaches altitude 10° 09:57:11 10° 134° (SE) 2,763 8.1 -10.9°
Maximum altitude 10:01:31 19° 91° (E) 2,142 7.3 -9.9°
Drops below altitude 10° 10:05:48 10° 47° (NE) 2,734 7.2 -8.9°
Sets 10:09:02 0° 30° (NNE) 3,670 7.6 -8.2°
